Location: Grospierres
(44.3992°N, 4.2897°E)
Time: 12:26:53
(UTC+00:00)

Daily predictions for brighter satellites

Satellite Brightness Start Highest point End
(mag) Time Altitude Azimuth Time Altitude Azimuth Time Altitude Azimuth
NOSS 2-1 (E) 4.3 19:56:26 10° NW 20:01:12 87° SW 20:08:04 10° SE
Cosmos 1656 3.8 19:56:46 10° NNW 20:02:13 62° ENE 20:07:41 10° SE
Terra 3.7 20:02:23 10° E 20:05:13 16° ENE 20:08:05 10° NNE
Landsat 7 4.2 20:01:12 10° S 20:05:53 68° WSW 20:10:36 10° NNW
Okean-O 4.5 20:04:39 10° SSW 20:08:33 30° W 20:12:29 10° NW
CZ-4B R/B 1.4 20:06:13 10° NNE 20:08:59 41° E 20:11:45 10° S
SPOT 1/Viking Rocket 3.6 20:04:13 10° SSE 20:09:19 71° ENE 20:14:28 10° N
H-2A R/B 2.2 20:07:04 10° NNE 20:11:33 84° ESE 20:16:04 10° SSW
Cosmos 1536 Rocket 3.9 20:09:37 10° SSE 20:13:43 44° E 20:17:52 10° NNE
Lacrosse 5 rocket 3.6 20:11:21 10° W 20:13:46 16° SW 20:16:14 10° SSW
USA 245 4.2 20:12:44 10° SE 20:16:18 31° ENE 20:19:15 10° N
CARTOSAT-1 4.0 20:13:26 10° SE 20:17:34 47° ENE 20:21:43 10° N
Cosmos 1980 Rocket 3.7 20:13:47 10° N 20:18:23 24° NE 20:22:57 10° ESE
Cosmos 1697 Rocket 3.4 20:13:13 10° NNW 20:18:32 42° ENE 20:23:48 10° SE
Cosmos 1975 Rocket 4.4 20:15:35 10° SSW 20:19:48 43° WNW 20:24:02 10° N
Cosmos 1452 Rocket 3.5 20:16:37 10° S 20:21:51 72° ESE 20:27:06 10° NNE
USA 276 4.1 20:19:39 10° WNW 20:22:19 27° N 20:25:00 10° ENE
Lacrosse 5 3.1 20:21:12 10° WNW 20:25:48 35° SW 20:30:24 10° SSE
Cosmos 1110 Rocket 4.2 20:21:36 10° S 20:26:39 50° ESE 20:31:47 10° NNE
ERS-1 Rocket 4.0 20:22:20 10° SE 20:26:44 32° ENE 20:31:09 10° N
SL-24 R/B 4.3 20:26:04 10° SSE 20:30:27 84° ENE 20:35:31 10° NNW
COSMOS 2406 3.9 20:25:39 10° S 20:30:48 35° ESE 20:35:58 10° NE
Cosmos 1544 Rocket 4.1 20:32:47 10° NNW 20:37:02 56° W 20:41:17 10° S
Cosmos 2074 Rocket 4.0 20:33:05 10° N 20:39:22 71° E 20:45:28 10° SSE
Cosmos 1833 Rocket 2.6 20:35:59 10° SSW 20:41:33 72° ESE 20:47:10 10° NNE
Cosmos 1703 3.1 20:39:46 10° S 20:43:35 72° E 20:47:26 10° NNE
Cosmos 1408 4.4 20:45:32 13° ESE 20:46:24 14° E 20:48:10 10° NE
Nadezhda 1 Rocket 4.1 20:42:59 10° SSE 20:48:51 54° E 20:54:44 10° NNE
USA 267 4.3 20:50:02 10° ENE 20:54:48 21° ESE 20:58:23 14° SSE
RESURS DK-1 2.8 20:51:50 10° NW 20:55:54 59° WSW 20:59:05 16° S
Cosmos 1867 4.3 20:56:12 10° NNW 21:01:26 43° NE 21:05:33 16° ESE
Cosmos 2084 Rocket 3.4 21:00:33 10° NNW 21:04:27 64° NE 21:06:56 22° SE
X-37B 0.4 21:02:28 10° W 21:05:13 55° SSW 21:06:14 32° SE
Helios 1A Rocket 2.9 21:03:00 20° SSE 21:05:44 71° ENE 21:09:49 10° N
SL-8 R/B 3.9 21:02:36 10° WNW 21:07:20 59° SSW 21:10:19 22° SE
Delta 2 Rocket 4.5 21:06:37 10° SW 21:08:47 18° S 21:08:47 18° S
Cosmos 2154 Rocket 4.0 21:06:07 10° N 21:12:22 87° E 21:17:21 17° S
Ariane Rocket 4.3 21:10:01 10° SSW 21:14:41 36° W 21:19:23 10° NNW
Cosmos 1328 3.7 21:13:36 19° S 21:16:21 73° E 21:20:21 10° NNE
Cosmos 2082 Rocket 2.3 21:11:57 10° S 21:17:33 59° ESE 21:23:09 10° NNE
SPOT 3 Rocket 4.2 21:15:15 12° S 21:19:50 51° W 21:24:56 10° NNW
Cosmos 2360 4.4 21:14:14 10° NNW 21:19:57 70° WSW 21:23:53 21° SSE
CZ-2C R/B 3.6 21:17:34 10° NNE 21:22:08 75° ESE 21:25:23 18° S
Cosmos 1892 Rocket 3.6 21:21:09 24° SSE 21:23:36 58° E 21:27:54 10° NNE
Cosmos 2228 3.6 21:20:07 10° NNW 21:24:15 53° W 21:27:18 17° SSW
SL-8 Rocket 4.4 21:23:45 10° N 21:29:45 47° ENE 21:33:12 24° SE
Resurs 01 Rocket 4.2 21:27:33 10° SW 21:30:10 15° W 21:32:49 10° NW
Cosmos 2058 Rocket 3.4 21:28:05 10° N 21:32:26 51° ENE 21:34:19 30° SE
Cosmos 1992 Rocket 4.4 21:36:31 28° SSE 21:38:41 42° ESE 21:43:36 10° NE
SPOT 5 3.4 21:37:57 19° SSW 21:40:43 44° W 21:44:53 10° NNW
Terra 2.0 21:39:42 25° S 21:42:26 67° WSW 21:47:12 10° NNW
Spot 2 Rocket 4.3 21:41:30 18° SSW 21:45:03 45° W 21:49:58 10° NNW
Cosmos 1892 2.6 21:44:17 41° SSE 21:45:22 64° E 21:49:08 10° NNE
SJ 16-02 3.5 21:44:25 10° NNE 21:47:18 17° NE 21:49:28 12° E
FALCON 9 DEB 4.1 21:45:39 10° NW 21:48:47 40° NNE 21:50:08 26° ENE
Cosmos 2366 rocket 4.3 21:43:17 10° N 21:49:32 57° ENE 21:52:47 29° SE
Cosmos 2218 Rocket 4.2 21:48:10 10° N 21:54:32 62° ENE 21:57:46 30° SSE
ASTEX 1 3.4 21:51:35 10° N 21:56:36 71° E 21:58:45 34° S
USA 276 3.4 21:55:43 10° NW 21:58:33 36° NNE 21:59:52 23° ENE
ARIANE 5 R/B 3.0 21:58:45 31° SSW 22:00:41 57° W 22:05:04 10° NNW
Cosmos 1697 Rocket 4.0 21:57:28 10° NW 22:02:20 31° WSW 22:05:32 18° SSW
Cosmos 1980 Rocket 2.4 21:57:13 10° NNW 22:02:50 62° WSW 22:05:29 31° S
GP-B 3.0 21:59:02 10° N 22:03:30 82° E 22:05:00 41° S
SL-16 R/B 3.1 21:58:52 10° NNW 22:04:14 40° ENE 22:07:09 24° ESE
ERS-1 Rocket 4.2 22:02:19 18° SSW 22:05:27 34° W 22:10:01 10° NNW
Cosmos 1959 Rocket 4.4 22:01:09 10° N 22:07:17 74° E 22:10:08 34° SSE
Cosmos 2369 4.3 22:03:19 10° NW 22:08:49 49° WSW 22:11:30 28° SSW
ATLAS 5 CENTAUR R/B 1.1 22:08:26 36° SW 22:09:54 89° NW 22:14:00 10° NE
Cosmos 2341 Rocket 4.1 22:05:56 10° NNW 22:12:13 71° W 22:15:35 29° S
Cosmos 864 Rocket 4.4 22:11:05 10° N 22:17:19 87° E 22:20:12 35° S
In-Cosmos 22 Rocket 4.1 22:14:44 30° SSW 22:17:35 84° W 22:23:02 10° N
Cosmos 1408 3.9 22:19:29 25° WSW 22:20:44 33° WNW 22:23:54 10° N
Cosmos 1503 Rocket 4.4 22:15:56 10° NNW 22:21:09 55° ENE 22:23:03 36° ESE
Okean 1-7 Rocket 3.5 22:19:49 44° S 22:21:12 87° WNW 22:25:44 10° N
Cosmos 968 Rocket 4.5 22:19:39 10° NW 22:24:26 38° WSW 22:26:32 27° SSW
Cosmos 1758 Rocket 4.0 22:25:31 42° ESE 22:26:00 44° E 22:30:11 10° NNE
Cosmos 1869 3.1 22:22:18 10° N 22:26:13 83° W 22:26:47 64° S
Cosmos 1825 2.3 22:28:51 54° SW 22:29:29 66° W 22:33:12 10° N
Meteor 1-27 4.3 22:27:22 10° NNW 22:32:54 71° W 22:35:01 39° S
Spot 4 3.9 22:35:11 46° SE 22:36:26 65° ENE 22:41:11 10° N
Cosmos 2181 Rocket 4.3 22:34:40 26° SSW 22:38:10 63° W 22:44:23 10° N
Cosmos 1812 Rocket 3.5 22:33:55 10° N 22:38:22 72° E 22:39:08 57° SE
USA 267 3.1 22:31:54 10° NE 22:38:29 78° SE 22:45:01 10° SW
Cosmos 2322 Rocket 2.7 22:33:30 10° NNW 22:39:04 53° ENE 22:41:25 33° ESE
BREEZE-M DEB (TANK) 4.3 22:39:22 10° WNW 22:42:36 58° NNE 22:54:39 10° E
Cosmos-2242 3.0 22:38:26 10° N 22:42:39 62° E 22:43:11 56° ESE
Cosmos 1821 Rocket 4.0 22:37:55 10° N 22:44:09 72° E 22:46:22 41° SSE
Cosmos 1602 Rocket 3.5 22:48:54 58° SSW 22:49:40 76° W 22:54:01 10° N
Cosmos 2278 4.4 22:45:43 10° NW 22:51:05 43° WSW 22:52:47 34° SSW
Cosmos 2333 Rocket 3.6 22:51:52 10° N 22:57:01 32° NE 23:00:27 18° ESE
ALOS 2 2.6 23:00:42 61° SE 23:01:18 71° ENE 23:05:41 10° N
Cosmos 2082 Rocket 4.2 22:57:22 10° WSW 23:02:02 25° NW 23:06:42 10° N
Nadezhda 3 Rocket 3.9 23:02:12 44° S 23:04:20 84° E 23:10:32 10° N
Gbstr 26 Del rocket 2.9 23:05:11 68° SE 23:05:11 68° SE 23:09:59 10° ENE
Cosmos 1340 Rocket 3.5 23:05:53 41° E 23:05:53 41° E 23:09:22 10° NNE
Cosmos 1606 2.6 23:07:31 10° N 23:11:18 84° NW 23:11:18 84° NW
USA 234 3.4 23:07:03 18° ESE 23:12:05 70° NE 23:18:37 10° NW
Cosmos 1633 3.6 23:12:29 35° WNW 23:12:32 36° WNW 23:15:46 10° N
Cosmos 2360 Rocket 2.4 23:08:38 10° NNW 23:14:18 65° ENE 23:16:14 40° SE
BREEZE-M DEB (TANK) 4.1 23:03:56 10° WSW 23:14:44 62° NNW 23:18:08 10° ENE
Cosmos 1953 Rocket 3.8 23:15:54 55° ESE 23:16:08 55° E 23:20:27 10° NNE
Cosmos 1825 Rocket 3.4 23:24:44 68° SW 23:25:07 74° W 23:29:29 10° N
SJ 16-02 1.5 23:21:53 10° NNW 23:26:14 56° WSW 23:26:24 56° WSW
H-2A R/B 3.6 23:22:12 10° N 23:26:22 63° WNW 23:26:52 57° WSW
Cosmos 2058 2.9 23:28:04 70° WSW 23:28:17 73° W 23:32:29 10° N
Cosmos 1833 4.1 23:27:13 53° SSE 23:28:21 67° ESE 23:33:55 10° NNE
PSLV R/B 4.2 23:24:22 10° NNE 23:28:57 47° E 23:29:18 46° ESE
Cosmos 2237 4.3 23:27:50 10° NNW 23:33:29 61° WSW 23:34:40 50° SSW
Cosmos 2221 2.6 23:35:33 10° N 23:39:53 63° E 23:40:15 60° ESE
Meteor 2-2 Rocket 4.4 23:36:42 10° NNW 23:42:42 72° W 23:44:23 48° SSW
COSMOS 2428 3.9 23:38:23 10° NNW 23:43:39 36° NE 23:47:19 18° ESE
Cosmos 2297 Rocket 4.5 23:44:29 10° ESE 23:45:21 10° E 23:46:13 10° E
ADEOS Rocket 3.7 23:42:56 38° SSW 23:45:46 59° W 23:53:25 10° NNW
ISS -1.8 23:47:45 23° ENE 23:47:45 23° ENE 23:49:09 10° ENE
Cosmos 1842 Rocket 3.8 23:43:22 10° N 23:47:49 57° E 23:48:21 53° ESE
ERS-2 2.3 23:44:15 10° N 23:47:29 66° NNW 23:47:29 66° NNW
SL-16 R/B 3.1 23:43:12 10° NW 23:48:12 33° WSW 23:49:00 31° WSW
COSMOS 2487 3.9 23:49:36 28° NE 23:49:36 28° NE 23:51:18 10° NNE
SL-4 R/B 2.6 23:49:35 40° WNW 23:50:16 47° NNW 23:53:51 10° NE
Nimbus 7 Rocket 4.4 23:44:28 10° NNE 23:50:27 77° ESE 23:52:10 49° S
Cosmos 2219 Rocket 2.7 23:45:08 10° NNW 23:50:43 56° ENE 23:53:12 32° ESE
SL-27 R/B 3.4 23:53:43 40° NE 23:53:43 40° NE 23:56:00 10° NNE
Cosmos 540 Rocket 4.5 23:52:58 30° ESE 23:53:34 31° E 23:58:03 10° NE
ATLAS 5 CENTAUR R/B 4.2 23:52:50 10° WNW 23:55:10 15° NNW 23:57:40 10° N
